Year,Month,Day,Hour,Minute,Value (Times are PST for temperature in C)
2009,07,27,00,00,14.30
2009,07,27,00,01,14.30
2009,07,27,00,02,14.30
2009,07,27,00,03,14.30
2009,07,27,00,04,14.30
2009,07,27,00,05,14.40
2009,07,27,00,06,14.40
2009,07,27,00,07,14.40
2009,07,27,00,08,14.40
2009,07,27,00,09,14.40
2009,07,27,00,10,14.50
2009,07,27,00,11,14.50
2009,07,27,00,12,14.50
2009,07,27,00,13,14.50
2009,07,27,00,14,14.60
2009,07,27,00,15,14.60
2009,07,27,00,16,14.60
2009,07,27,00,17,14.70
2009,07,27,00,18,14.70
2009,07,27,00,19,14.80
2009,07,27,00,20,14.80
2009,07,27,00,21,14.80
2009,07,27,00,22,14.80
2009,07,27,00,23,14.90
2009,07,27,00,24,14.90
2009,07,27,00,25,14.90
2009,07,27,00,26,15.00
2009,07,27,00,27,15.00
2009,07,27,00,28,15.00
2009,07,27,00,29,15.00
2009,07,27,00,30,15.10
2009,07,27,00,31,15.10
2009,07,27,00,32,15.10
2009,07,27,00,33,15.10
2009,07,27,00,34,15.10
2009,07,27,00,35,15.10
2009,07,27,00,36,15.10
2009,07,27,00,37,15.10
2009,07,27,00,38,15.10
2009,07,27,00,39,15.10
2009,07,27,00,40,15.10
2009,07,27,00,41,15.10
2009,07,27,00,42,15.10
2009,07,27,00,43,15.10
2009,07,27,00,44,15.10
2009,07,27,00,45,15.10
2009,07,27,00,46,15.10
2009,07,27,00,47,15.10
2009,07,27,00,48,15.10
2009,07,27,00,49,15.20
2009,07,27,00,50,15.20
2009,07,27,00,51,15.20
2009,07,27,00,52,15.20
2009,07,27,00,53,15.20
2009,07,27,00,54,15.20
2009,07,27,00,55,15.10
2009,07,27,00,56,15.10
2009,07,27,00,57,15.10
2009,07,27,00,58,15.10
2009,07,27,00,59,15.10
2009,07,27,01,00,15.10
2009,07,27,01,01,15.10
2009,07,27,01,02,15.10
2009,07,27,01,03,15.00
2009,07,27,01,04,15.00
2009,07,27,01,05,15.00
2009,07,27,01,06,15.00
2009,07,27,01,07,15.00
2009,07,27,01,08,15.00
2009,07,27,01,09,15.00
2009,07,27,01,10,15.00
2009,07,27,01,11,15.00
2009,07,27,01,12,15.00
2009,07,27,01,13,15.00
2009,07,27,01,14,15.00
2009,07,27,01,15,15.00
2009,07,27,01,16,15.00
2009,07,27,01,17,15.00
2009,07,27,01,18,15.00
2009,07,27,01,19,14.90
2009,07,27,01,20,14.90
2009,07,27,01,21,14.90
2009,07,27,01,22,14.90
2009,07,27,01,23,14.90
2009,07,27,01,24,14.90
2009,07,27,01,25,14.90
2009,07,27,01,26,14.90
2009,07,27,01,27,14.90
2009,07,27,01,28,14.90
2009,07,27,01,29,14.90
2009,07,27,01,30,15.00
2009,07,27,01,31,15.00
2009,07,27,01,32,15.00
2009,07,27,01,33,15.00
2009,07,27,01,34,15.00
2009,07,27,01,35,15.00
2009,07,27,01,36,15.00
2009,07,27,01,37,15.10
2009,07,27,01,38,15.10
2009,07,27,01,39,15.10
2009,07,27,01,40,15.20
2009,07,27,01,41,15.20
2009,07,27,01,42,15.30
2009,07,27,01,43,15.30
2009,07,27,01,44,15.30
2009,07,27,01,45,15.30
2009,07,27,01,46,15.30
2009,07,27,01,47,15.30
2009,07,27,01,48,15.30
2009,07,27,01,49,15.30
2009,07,27,01,50,15.30
2009,07,27,01,51,15.30
2009,07,27,01,52,15.30
2009,07,27,01,53,15.30
2009,07,27,01,54,15.30
2009,07,27,01,55,15.30
2009,07,27,01,56,15.30
2009,07,27,01,57,15.20
2009,07,27,01,58,15.20
2009,07,27,01,59,15.20
2009,07,27,02,00,15.10
2009,07,27,02,01,15.10
2009,07,27,02,02,15.10
2009,07,27,02,03,15.00
2009,07,27,02,04,15.00
2009,07,27,02,05,15.00
2009,07,27,02,06,15.00
2009,07,27,02,07,15.00
2009,07,27,02,08,15.00
2009,07,27,02,09,15.00
2009,07,27,02,10,15.00
2009,07,27,02,11,15.00
2009,07,27,02,12,15.00
2009,07,27,02,13,15.00
2009,07,27,02,14,15.00
2009,07,27,02,15,15.00
2009,07,27,02,16,15.00
2009,07,27,02,17,15.00
2009,07,27,02,18,15.00
2009,07,27,02,19,15.10
2009,07,27,02,20,15.10
2009,07,27,02,21,15.10
2009,07,27,02,22,15.10
2009,07,27,02,23,15.10
2009,07,27,02,24,15.20
2009,07,27,02,25,15.20
2009,07,27,02,26,15.20
2009,07,27,02,27,15.20
2009,07,27,02,28,15.20
2009,07,27,02,29,15.10
2009,07,27,02,30,15.10
2009,07,27,02,31,15.10
2009,07,27,02,32,15.10
2009,07,27,02,33,15.10
2009,07,27,02,34,15.00
2009,07,27,02,35,15.00
2009,07,27,02,36,15.00
2009,07,27,02,37,14.90
2009,07,27,02,38,14.90
2009,07,27,02,39,14.90
2009,07,27,02,40,14.90
2009,07,27,02,41,14.80
2009,07,27,02,42,14.80
2009,07,27,02,43,14.80
2009,07,27,02,44,14.80
2009,07,27,02,45,14.80
2009,07,27,02,46,14.70
2009,07,27,02,47,14.70
2009,07,27,02,48,14.70
2009,07,27,02,49,14.60
2009,07,27,02,50,14.60
2009,07,27,02,51,14.60
2009,07,27,02,52,14.60
2009,07,27,02,53,14.50
2009,07,27,02,54,14.50
2009,07,27,02,55,14.50
2009,07,27,02,56,14.50
2009,07,27,02,57,14.40
2009,07,27,02,58,14.40
2009,07,27,02,59,14.40
2009,07,27,03,00,14.40
2009,07,27,03,01,14.40
2009,07,27,03,02,14.40
2009,07,27,03,03,14.30
2009,07,27,03,04,14.30
2009,07,27,03,05,14.30
2009,07,27,03,06,14.30
2009,07,27,03,07,14.30
2009,07,27,03,08,14.30
2009,07,27,03,09,14.20
2009,07,27,03,10,14.20
2009,07,27,03,11,14.20
2009,07,27,03,12,14.20
2009,07,27,03,13,14.20
2009,07,27,03,14,14.20
2009,07,27,03,15,14.20
2009,07,27,03,16,14.20
2009,07,27,03,17,14.20
2009,07,27,03,18,14.20
2009,07,27,03,19,14.20
2009,07,27,03,20,14.20
2009,07,27,03,21,14.20
2009,07,27,03,22,14.20
2009,07,27,03,23,14.20
2009,07,27,03,24,14.20
2009,07,27,03,25,14.20
2009,07,27,03,26,14.20
2009,07,27,03,27,14.20
2009,07,27,03,28,14.20
2009,07,27,03,29,14.20
2009,07,27,03,30,14.20
2009,07,27,03,31,14.20
2009,07,27,03,32,14.10
2009,07,27,03,33,14.10
2009,07,27,03,34,14.10
2009,07,27,03,35,14.10
2009,07,27,03,36,14.10
2009,07,27,03,37,14.10
2009,07,27,03,38,14.10
2009,07,27,03,39,14.10
2009,07,27,03,40,14.10
2009,07,27,03,41,14.10
2009,07,27,03,42,14.10
2009,07,27,03,43,14.00
2009,07,27,03,44,14.00
2009,07,27,03,45,14.00
2009,07,27,03,46,14.00
2009,07,27,03,47,13.90
2009,07,27,03,48,13.90
2009,07,27,03,49,13.90
2009,07,27,03,50,13.80
2009,07,27,03,51,13.80
2009,07,27,03,52,13.80
2009,07,27,03,53,13.80
2009,07,27,03,54,13.80
2009,07,27,03,55,13.80
2009,07,27,03,56,13.80
2009,07,27,03,57,13.80
2009,07,27,03,58,13.80
2009,07,27,03,59,13.80
2009,07,27,04,00,13.80
2009,07,27,04,01,13.80
2009,07,27,04,02,13.80
2009,07,27,04,03,13.80
2009,07,27,04,04,13.80
2009,07,27,04,05,13.80
2009,07,27,04,06,13.80
2009,07,27,04,07,13.80
2009,07,27,04,08,13.80
2009,07,27,04,09,13.80
2009,07,27,04,10,13.80
2009,07,27,04,11,13.80
2009,07,27,04,12,13.80
2009,07,27,04,13,13.80
2009,07,27,04,14,13.80
2009,07,27,04,15,13.80
2009,07,27,04,16,13.80
2009,07,27,04,17,13.80
2009,07,27,04,18,13.80
2009,07,27,04,19,13.80
2009,07,27,04,20,13.80
2009,07,27,04,21,13.80
2009,07,27,04,22,13.80
2009,07,27,04,23,13.80
2009,07,27,04,24,13.80
2009,07,27,04,25,13.80
2009,07,27,04,26,13.80
2009,07,27,04,27,13.90
2009,07,27,04,28,13.90
2009,07,27,04,29,13.90
2009,07,27,04,30,13.90
2009,07,27,04,31,13.90
2009,07,27,04,32,13.90
2009,07,27,04,33,13.90
2009,07,27,04,34,14.00
2009,07,27,04,35,14.00
2009,07,27,04,36,14.00
2009,07,27,04,37,14.10
2009,07,27,04,38,14.10
2009,07,27,04,39,14.10
2009,07,27,04,40,14.10
2009,07,27,04,41,14.10
2009,07,27,04,42,14.00
2009,07,27,04,43,14.00
2009,07,27,04,44,13.90
2009,07,27,04,45,13.90
2009,07,27,04,46,13.80
2009,07,27,04,47,13.80
2009,07,27,04,48,13.80
2009,07,27,04,49,13.80
2009,07,27,04,50,13.70
2009,07,27,04,51,13.70
2009,07,27,04,52,13.70
2009,07,27,04,53,13.70
2009,07,27,04,54,13.80
2009,07,27,04,55,13.80
2009,07,27,04,56,13.80
2009,07,27,04,57,13.80
2009,07,27,04,58,13.80
2009,07,27,04,59,13.70
2009,07,27,05,00,13.70
2009,07,27,05,01,13.70
2009,07,27,05,02,13.70
2009,07,27,05,03,13.70
2009,07,27,05,04,13.60
2009,07,27,05,05,13.60
2009,07,27,05,06,13.60
2009,07,27,05,07,13.60
2009,07,27,05,08,13.60
2009,07,27,05,09,13.60
2009,07,27,05,10,13.60
2009,07,27,05,11,13.60
2009,07,27,05,12,13.60
2009,07,27,05,13,13.60
2009,07,27,05,14,13.60
2009,07,27,05,15,13.60
2009,07,27,05,16,13.70
2009,07,27,05,17,13.70
2009,07,27,05,18,13.70
2009,07,27,05,19,13.70
2009,07,27,05,20,13.70
2009,07,27,05,21,13.70
2009,07,27,05,22,13.70
2009,07,27,05,23,13.70
2009,07,27,05,24,13.70
2009,07,27,05,25,13.70
2009,07,27,05,26,13.70
2009,07,27,05,27,13.70
2009,07,27,05,28,13.70
2009,07,27,05,29,13.70
2009,07,27,05,30,13.80
2009,07,27,05,31,13.80
2009,07,27,05,32,13.90
2009,07,27,05,33,13.90
2009,07,27,05,34,13.90
2009,07,27,05,35,13.90
2009,07,27,05,36,14.00
2009,07,27,05,37,14.00
2009,07,27,05,38,14.00
2009,07,27,05,39,14.10
2009,07,27,05,40,14.10
2009,07,27,05,41,14.20
2009,07,27,05,42,14.20
2009,07,27,05,43,14.20
2009,07,27,05,44,14.10
2009,07,27,05,45,14.10
2009,07,27,05,46,14.00
2009,07,27,05,47,13.90
2009,07,27,05,48,13.90
2009,07,27,05,49,13.90
2009,07,27,05,50,13.90
2009,07,27,05,51,13.90
2009,07,27,05,52,13.90
2009,07,27,05,53,13.90
2009,07,27,05,54,13.90
2009,07,27,05,55,13.90
2009,07,27,05,56,13.90
2009,07,27,05,57,13.90
2009,07,27,05,58,13.90
2009,07,27,05,59,13.90
2009,07,27,06,00,13.90
2009,07,27,06,01,13.90
2009,07,27,06,02,13.90
2009,07,27,06,03,13.90
2009,07,27,06,04,13.90
2009,07,27,06,05,13.90
2009,07,27,06,06,13.90
2009,07,27,06,07,13.90
2009,07,27,06,08,13.90
2009,07,27,06,09,13.90
2009,07,27,06,10,13.90
2009,07,27,06,11,13.90
2009,07,27,06,12,14.00
2009,07,27,06,13,14.00
2009,07,27,06,14,14.00
2009,07,27,06,15,14.00
2009,07,27,06,16,14.00
2009,07,27,06,17,14.00
2009,07,27,06,18,14.10
2009,07,27,06,19,14.10
2009,07,27,06,20,14.10
2009,07,27,06,21,14.20
2009,07,27,06,22,14.20
2009,07,27,06,23,14.20
2009,07,27,06,24,14.20
2009,07,27,06,25,14.30
2009,07,27,06,26,14.40
2009,07,27,06,27,14.50
2009,07,27,06,28,14.50
2009,07,27,06,29,14.60
2009,07,27,06,30,14.70
2009,07,27,06,31,14.80
2009,07,27,06,32,14.80
2009,07,27,06,33,14.90
2009,07,27,06,34,14.90
2009,07,27,06,35,15.00
2009,07,27,06,36,15.10
2009,07,27,06,37,15.10
2009,07,27,06,38,15.10
2009,07,27,06,39,15.20
2009,07,27,06,40,15.20
2009,07,27,06,41,15.30
2009,07,27,06,42,15.30
2009,07,27,06,43,15.40
2009,07,27,06,44,15.50
2009,07,27,06,45,15.60
2009,07,27,06,46,15.70
2009,07,27,06,47,15.90
2009,07,27,06,48,16.20
2009,07,27,06,49,16.40
2009,07,27,06,50,16.60
2009,07,27,06,51,16.80
2009,07,27,06,52,17.00
2009,07,27,06,53,17.20
2009,07,27,06,54,17.40
2009,07,27,06,55,17.50
2009,07,27,06,56,17.70
2009,07,27,06,57,17.90
2009,07,27,06,58,18.00
2009,07,27,06,59,18.20
2009,07,27,07,00,18.30
2009,07,27,07,01,18.40
2009,07,27,07,02,18.60
2009,07,27,07,03,18.60
2009,07,27,07,04,18.70
2009,07,27,07,05,18.80
2009,07,27,07,06,18.90
2009,07,27,07,07,19.00
2009,07,27,07,08,19.10
2009,07,27,07,09,19.20
2009,07,27,07,10,19.30
2009,07,27,07,11,19.40
2009,07,27,07,12,19.40
2009,07,27,07,13,19.50
2009,07,27,07,14,19.60
2009,07,27,07,15,19.70
2009,07,27,07,16,19.70
2009,07,27,07,17,19.80
2009,07,27,07,18,19.80
2009,07,27,07,19,19.90
2009,07,27,07,20,19.90
2009,07,27,07,21,19.90
2009,07,27,07,22,20.00
2009,07,27,07,23,20.10
2009,07,27,07,24,20.20
2009,07,27,07,25,20.20
2009,07,27,07,26,20.20
2009,07,27,07,27,20.30
2009,07,27,07,28,20.30
2009,07,27,07,29,20.40
2009,07,27,07,30,20.40
2009,07,27,07,31,20.50
2009,07,27,07,32,20.50
2009,07,27,07,33,20.50
2009,07,27,07,34,20.50
2009,07,27,07,35,20.50
2009,07,27,07,36,20.50
2009,07,27,07,37,20.50
2009,07,27,07,38,20.40
2009,07,27,07,39,20.40
2009,07,27,07,40,20.40
2009,07,27,07,41,20.30
2009,07,27,07,42,20.30
2009,07,27,07,43,20.20
2009,07,27,07,44,20.20
2009,07,27,07,45,20.10
2009,07,27,07,46,20.00
2009,07,27,07,47,19.90
2009,07,27,07,48,19.90
2009,07,27,07,49,19.80
2009,07,27,07,50,19.80
2009,07,27,07,51,19.80
2009,07,27,07,52,19.70
2009,07,27,07,53,19.60
2009,07,27,07,54,19.40
2009,07,27,07,55,19.20
2009,07,27,07,56,18.90
2009,07,27,07,57,18.60
2009,07,27,07,58,18.50
2009,07,27,07,59,18.30
2009,07,27,08,00,18.20
2009,07,27,08,01,18.10
2009,07,27,08,02,18.10
2009,07,27,08,03,18.10
2009,07,27,08,04,18.00
2009,07,27,08,05,17.90
2009,07,27,08,06,17.90
2009,07,27,08,07,17.90
2009,07,27,08,08,17.90
2009,07,27,08,09,17.80
2009,07,27,08,10,17.80
2009,07,27,08,11,17.80
2009,07,27,08,12,17.70
2009,07,27,08,13,17.70
2009,07,27,08,14,17.70
2009,07,27,08,15,17.70
2009,07,27,08,16,17.70
2009,07,27,08,17,17.70
2009,07,27,08,18,17.70
2009,07,27,08,19,17.70
2009,07,27,08,20,17.70
2009,07,27,08,21,17.80
2009,07,27,08,22,17.90
2009,07,27,08,23,17.90
2009,07,27,08,24,18.00
2009,07,27,08,25,18.10
2009,07,27,08,26,18.20
2009,07,27,08,27,18.20
2009,07,27,08,28,18.20
2009,07,27,08,29,18.30
2009,07,27,08,30,18.40
2009,07,27,08,31,18.50
2009,07,27,08,32,18.60
2009,07,27,08,33,18.70
2009,07,27,08,34,18.80
2009,07,27,08,35,18.90
2009,07,27,08,36,19.00
2009,07,27,08,37,19.20
2009,07,27,08,38,19.30
2009,07,27,08,39,19.40
2009,07,27,08,40,19.60
2009,07,27,08,41,19.70
2009,07,27,08,42,19.80
2009,07,27,08,43,19.90
2009,07,27,08,44,20.00
2009,07,27,08,45,20.10
2009,07,27,08,46,20.20
2009,07,27,08,47,20.30
2009,07,27,08,48,20.40
2009,07,27,08,49,20.50
2009,07,27,08,50,20.60
2009,07,27,08,51,20.70
2009,07,27,08,52,20.70
2009,07,27,08,53,20.80
2009,07,27,08,54,20.80
2009,07,27,08,55,20.90
2009,07,27,08,56,20.90
2009,07,27,08,57,21.00
2009,07,27,08,58,21.00
2009,07,27,08,59,21.00
2009,07,27,09,00,21.10
2009,07,27,09,01,21.10
2009,07,27,09,02,21.20
2009,07,27,09,03,21.20
2009,07,27,09,04,21.30
2009,07,27,09,05,21.40
2009,07,27,09,06,21.50
2009,07,27,09,07,21.60
2009,07,27,09,08,21.70
2009,07,27,09,09,21.80
2009,07,27,09,10,21.90
2009,07,27,09,11,21.90
2009,07,27,09,12,22.00
2009,07,27,09,13,22.10
2009,07,27,09,14,22.10
2009,07,27,09,15,22.10
2009,07,27,09,16,22.10
2009,07,27,09,17,22.20
2009,07,27,09,18,22.20
2009,07,27,09,19,22.20
2009,07,27,09,20,22.10
2009,07,27,09,21,22.10
2009,07,27,09,22,22.10
2009,07,27,09,23,22.10
2009,07,27,09,24,22.10
2009,07,27,09,25,22.20
2009,07,27,09,26,22.30
2009,07,27,09,27,22.30
2009,07,27,09,28,22.40
2009,07,27,09,29,22.50
2009,07,27,09,30,22.60
2009,07,27,09,31,22.60
2009,07,27,09,32,22.60
2009,07,27,09,33,22.70
2009,07,27,09,34,22.80
2009,07,27,09,35,22.90
2009,07,27,09,36,22.90
2009,07,27,09,37,22.90
2009,07,27,09,38,22.80
2009,07,27,09,39,22.70
2009,07,27,09,40,22.70
2009,07,27,09,41,22.70
2009,07,27,09,42,22.70
2009,07,27,09,43,22.70
2009,07,27,09,44,22.70
2009,07,27,09,45,22.70
2009,07,27,09,46,22.70
2009,07,27,09,47,22.70
2009,07,27,09,48,22.80
2009,07,27,09,49,22.80
2009,07,27,09,50,22.80
2009,07,27,09,51,22.90
2009,07,27,09,52,22.90
2009,07,27,09,53,23.00
2009,07,27,09,54,23.10
2009,07,27,09,55,23.20
2009,07,27,09,56,23.30
2009,07,27,09,57,23.30
2009,07,27,09,58,23.30
2009,07,27,09,59,23.40
2009,07,27,10,00,23.40
2009,07,27,10,01,23.50
2009,07,27,10,02,23.60
2009,07,27,10,03,23.70
2009,07,27,10,04,23.80
2009,07,27,10,05,23.80
2009,07,27,10,06,23.90
2009,07,27,10,07,24.00
2009,07,27,10,08,24.10
2009,07,27,10,09,24.10
2009,07,27,10,10,24.10
2009,07,27,10,11,24.20
2009,07,27,10,12,24.20
2009,07,27,10,13,24.30
2009,07,27,10,14,24.30
2009,07,27,10,15,24.40
2009,07,27,10,16,24.40
2009,07,27,10,17,24.40
2009,07,27,10,18,24.40
2009,07,27,10,19,24.50
2009,07,27,10,20,24.50
2009,07,27,10,21,24.50
2009,07,27,10,22,24.60
2009,07,27,10,23,24.50
2009,07,27,10,24,24.50
2009,07,27,10,25,24.40
2009,07,27,10,26,24.40
2009,07,27,10,27,24.40
2009,07,27,10,28,24.40
2009,07,27,10,29,24.30
2009,07,27,10,30,24.30
2009,07,27,10,31,24.20
2009,07,27,10,32,24.20
2009,07,27,10,33,24.20
2009,07,27,10,34,24.20
2009,07,27,10,35,24.20
2009,07,27,10,36,24.20
2009,07,27,10,37,24.10
2009,07,27,10,38,24.10
2009,07,27,10,39,24.00
2009,07,27,10,40,23.90
2009,07,27,10,41,23.90
2009,07,27,10,42,23.90
2009,07,27,10,43,23.90
2009,07,27,10,44,24.00
2009,07,27,10,45,24.10
2009,07,27,10,46,24.10
2009,07,27,10,47,24.20
2009,07,27,10,48,24.30
2009,07,27,10,49,24.40
2009,07,27,10,50,24.50
2009,07,27,10,51,24.50
2009,07,27,10,52,24.60
2009,07,27,10,53,24.60
2009,07,27,10,54,24.60
2009,07,27,10,55,24.60
2009,07,27,10,56,24.60
2009,07,27,10,57,24.60
2009,07,27,10,58,24.60
2009,07,27,10,59,24.70
2009,07,27,11,00,24.70
2009,07,27,11,01,24.80
2009,07,27,11,02,24.80
2009,07,27,11,03,24.90
2009,07,27,11,04,24.90
2009,07,27,11,05,24.90
2009,07,27,11,06,24.90
2009,07,27,11,07,24.90
2009,07,27,11,08,24.80
2009,07,27,11,09,24.80
2009,07,27,11,10,24.70
2009,07,27,11,11,24.70
2009,07,27,11,12,24.80
2009,07,27,11,13,24.80
2009,07,27,11,14,24.90
2009,07,27,11,15,24.90
2009,07,27,11,16,24.90
2009,07,27,11,17,24.90
2009,07,27,11,18,24.90
2009,07,27,11,19,24.90
2009,07,27,11,20,24.90
2009,07,27,11,21,25.00
2009,07,27,11,22,25.00
2009,07,27,11,23,25.00
2009,07,27,11,24,25.10
2009,07,27,11,25,25.10
2009,07,27,11,26,25.20
2009,07,27,11,27,25.30
2009,07,27,11,28,25.40
2009,07,27,11,29,25.40
2009,07,27,11,30,25.40
2009,07,27,11,31,25.40
2009,07,27,11,32,25.40
2009,07,27,11,33,25.40
2009,07,27,11,34,25.40
2009,07,27,11,35,25.40
2009,07,27,11,36,25.40
2009,07,27,11,37,25.40
2009,07,27,11,38,25.30
2009,07,27,11,39,25.20
2009,07,27,11,40,25.20
2009,07,27,11,41,25.10
2009,07,27,11,42,25.10
2009,07,27,11,43,25.20
2009,07,27,11,44,25.20
2009,07,27,11,45,25.30
2009,07,27,11,46,25.40
2009,07,27,11,47,25.40
2009,07,27,11,48,25.50
2009,07,27,11,49,25.50
2009,07,27,11,50,25.60
2009,07,27,11,51,25.60
2009,07,27,11,52,25.60
2009,07,27,11,53,25.60
2009,07,27,11,54,25.60
2009,07,27,11,55,25.60
2009,07,27,11,56,25.50
2009,07,27,11,57,25.50
2009,07,27,11,58,25.40
2009,07,27,11,59,25.30
2009,07,27,12,00,25.20
2009,07,27,12,01,25.10
2009,07,27,12,02,25.10
2009,07,27,12,03,25.00
2009,07,27,12,04,24.90
2009,07,27,12,05,24.90
2009,07,27,12,06,24.80
2009,07,27,12,07,24.80
2009,07,27,12,08,24.80
2009,07,27,12,09,24.80
2009,07,27,12,10,24.90
2009,07,27,12,11,24.90
2009,07,27,12,12,25.00
2009,07,27,12,13,25.10
2009,07,27,12,14,25.20
2009,07,27,12,15,25.30
2009,07,27,12,16,25.40
2009,07,27,12,17,25.40
2009,07,27,12,18,25.50
2009,07,27,12,19,25.60
2009,07,27,12,20,25.60
2009,07,27,12,21,25.70
2009,07,27,12,22,25.70
2009,07,27,12,23,25.70
2009,07,27,12,24,25.80
2009,07,27,12,25,25.90
2009,07,27,12,26,25.90
2009,07,27,12,27,26.00
2009,07,27,12,28,26.10
2009,07,27,12,29,26.10
2009,07,27,12,30,26.20
2009,07,27,12,31,26.20
2009,07,27,12,32,26.30
2009,07,27,12,33,26.30
2009,07,27,12,34,26.20
2009,07,27,12,35,26.20
2009,07,27,12,36,26.10
2009,07,27,12,37,26.10
2009,07,27,12,38,26.10
2009,07,27,12,39,26.10
2009,07,27,12,40,26.20
2009,07,27,12,41,26.30
2009,07,27,12,42,26.30
2009,07,27,12,43,26.40
2009,07,27,12,44,26.50
2009,07,27,12,45,26.40
2009,07,27,12,46,26.40
2009,07,27,12,47,26.40
2009,07,27,12,48,26.30
2009,07,27,12,49,26.20
2009,07,27,12,50,26.00
2009,07,27,12,51,25.90
2009,07,27,12,52,25.90
2009,07,27,12,53,25.90
2009,07,27,12,54,25.90
2009,07,27,12,55,25.90
2009,07,27,12,56,25.90
2009,07,27,12,57,26.00
2009,07,27,12,58,26.00
2009,07,27,12,59,26.00
2009,07,27,13,00,26.20
2009,07,27,13,01,26.20
2009,07,27,13,02,26.30
2009,07,27,13,03,26.40
2009,07,27,13,04,26.30
2009,07,27,13,05,26.30
2009,07,27,13,06,26.20
2009,07,27,13,07,26.10
2009,07,27,13,08,26.00
2009,07,27,13,09,25.90
2009,07,27,13,10,25.90
2009,07,27,13,11,25.90
2009,07,27,13,12,25.90
2009,07,27,13,13,25.90
2009,07,27,13,14,25.90
2009,07,27,13,15,25.80
2009,07,27,13,16,25.80
2009,07,27,13,17,25.80
2009,07,27,13,18,25.90
2009,07,27,13,19,25.90
2009,07,27,13,20,26.00
2009,07,27,13,21,26.20
2009,07,27,13,22,26.30
2009,07,27,13,23,26.40
2009,07,27,13,24,26.40
2009,07,27,13,25,26.50
2009,07,27,13,26,26.60
2009,07,27,13,27,26.70
2009,07,27,13,28,26.80
2009,07,27,13,29,26.90
2009,07,27,13,30,27.00
2009,07,27,13,31,27.10
2009,07,27,13,32,27.20
2009,07,27,13,33,27.30
2009,07,27,13,34,27.30
2009,07,27,13,35,27.20
2009,07,27,13,36,27.00
2009,07,27,13,37,26.80
2009,07,27,13,38,26.70
2009,07,27,13,39,26.60
2009,07,27,13,40,26.50
2009,07,27,13,41,26.40
2009,07,27,13,42,26.30
2009,07,27,13,43,26.30
2009,07,27,13,44,26.30
2009,07,27,13,45,26.30
2009,07,27,13,46,26.30
2009,07,27,13,47,26.30
2009,07,27,13,48,26.30
2009,07,27,13,49,26.40
2009,07,27,13,50,26.40
2009,07,27,13,51,26.40
2009,07,27,13,52,26.40
2009,07,27,13,53,26.40
2009,07,27,13,54,26.40
2009,07,27,13,55,26.50
2009,07,27,13,56,26.60
2009,07,27,13,57,26.70
2009,07,27,13,58,26.80
2009,07,27,13,59,26.90
2009,07,27,14,00,27.00
2009,07,27,14,01,27.10
2009,07,27,14,02,27.20
2009,07,27,14,03,27.30
2009,07,27,14,04,27.30
2009,07,27,14,05,27.30
2009,07,27,14,06,27.40
2009,07,27,14,07,27.30
2009,07,27,14,08,27.30
2009,07,27,14,09,27.30
2009,07,27,14,10,27.30
2009,07,27,14,11,27.30
2009,07,27,14,12,27.30
2009,07,27,14,13,27.20
2009,07,27,14,14,27.20
2009,07,27,14,15,27.20
2009,07,27,14,16,27.20
2009,07,27,14,17,27.20
2009,07,27,14,18,27.20
2009,07,27,14,19,27.20
2009,07,27,14,20,27.20
2009,07,27,14,21,27.30
2009,07,27,14,22,27.30
2009,07,27,14,23,27.30
2009,07,27,14,24,27.20
2009,07,27,14,25,27.20
2009,07,27,14,26,27.20
2009,07,27,14,27,27.20
2009,07,27,14,28,27.20
2009,07,27,14,29,27.20
2009,07,27,14,30,27.30
2009,07,27,14,31,27.30
2009,07,27,14,32,27.30
2009,07,27,14,33,27.40
2009,07,27,14,34,27.40
2009,07,27,14,35,27.40
2009,07,27,14,36,27.40
2009,07,27,14,37,27.40
2009,07,27,14,38,27.40
2009,07,27,14,39,27.40
2009,07,27,14,40,27.40
2009,07,27,14,41,27.40
2009,07,27,14,42,27.40
2009,07,27,14,43,27.40
2009,07,27,14,44,27.50
2009,07,27,14,45,27.60
2009,07,27,14,46,27.60
2009,07,27,14,47,27.60
2009,07,27,14,48,27.70
2009,07,27,14,49,27.80
2009,07,27,14,50,27.90
2009,07,27,14,51,28.00
2009,07,27,14,52,28.10
2009,07,27,14,53,28.20
2009,07,27,14,54,28.30
2009,07,27,14,55,28.40
2009,07,27,14,56,28.40
2009,07,27,14,57,28.40
2009,07,27,14,58,28.40
2009,07,27,14,59,28.40
2009,07,27,15,00,28.50
2009,07,27,15,01,28.60
2009,07,27,15,02,28.50
2009,07,27,15,03,28.40
2009,07,27,15,04,28.50
2009,07,27,15,05,28.50
2009,07,27,15,06,28.60
2009,07,27,15,07,28.60
2009,07,27,15,08,28.60
2009,07,27,15,09,28.60
2009,07,27,15,10,28.60
2009,07,27,15,11,28.60
2009,07,27,15,12,28.70
2009,07,27,15,13,28.70
2009,07,27,15,14,28.70
2009,07,27,15,15,28.70
2009,07,27,15,16,28.80
2009,07,27,15,17,28.80
2009,07,27,15,18,28.80
2009,07,27,15,19,28.80
2009,07,27,15,20,28.90
2009,07,27,15,21,28.90
2009,07,27,15,22,28.90
2009,07,27,15,23,28.90
2009,07,27,15,24,28.90
2009,07,27,15,25,28.80
2009,07,27,15,26,28.80
2009,07,27,15,27,28.80
2009,07,27,15,28,28.80
2009,07,27,15,29,28.80
2009,07,27,15,30,28.90
2009,07,27,15,31,28.90
2009,07,27,15,32,28.90
2009,07,27,15,33,28.90
2009,07,27,15,34,29.00
2009,07,27,15,35,29.10
2009,07,27,15,36,29.20
2009,07,27,15,37,29.30
2009,07,27,15,38,29.30
2009,07,27,15,39,29.40
2009,07,27,15,40,29.40
2009,07,27,15,41,29.40
2009,07,27,15,42,29.40
2009,07,27,15,43,29.40
2009,07,27,15,44,29.40
2009,07,27,15,45,29.40
2009,07,27,15,46,29.30
2009,07,27,15,47,29.30
2009,07,27,15,48,29.30
2009,07,27,15,49,29.40
2009,07,27,15,50,29.40
2009,07,27,15,51,29.40
2009,07,27,15,52,29.50
2009,07,27,15,53,29.50
2009,07,27,15,54,29.50
2009,07,27,15,55,29.50
2009,07,27,15,56,29.60
2009,07,27,15,57,29.60
2009,07,27,15,58,29.50
2009,07,27,15,59,29.50
2009,07,27,16,00,29.50
2009,07,27,16,01,29.50
2009,07,27,16,02,29.50
2009,07,27,16,03,29.50
2009,07,27,16,04,29.50
2009,07,27,16,05,29.50
2009,07,27,16,06,29.50
2009,07,27,16,07,29.50
2009,07,27,16,08,29.60
2009,07,27,16,09,29.60
2009,07,27,16,10,29.70
2009,07,27,16,11,29.90
2009,07,27,16,12,30.00
2009,07,27,16,13,30.10
2009,07,27,16,14,30.10
2009,07,27,16,15,30.10
2009,07,27,16,16,30.10
2009,07,27,16,17,30.10
2009,07,27,16,18,30.00
2009,07,27,16,19,29.90
2009,07,27,16,20,29.90
2009,07,27,16,21,29.90
2009,07,27,16,22,29.90
2009,07,27,16,23,30.00
2009,07,27,16,24,30.10
2009,07,27,16,25,30.10
2009,07,27,16,26,30.10
2009,07,27,16,27,30.10
2009,07,27,16,28,30.10
2009,07,27,16,29,30.10
2009,07,27,16,30,30.10
2009,07,27,16,31,30.10
2009,07,27,16,32,30.10
2009,07,27,16,33,30.10
2009,07,27,16,34,30.10
2009,07,27,16,35,30.10
2009,07,27,16,36,30.20
2009,07,27,16,37,30.30
2009,07,27,16,38,30.30
2009,07,27,16,39,30.30
2009,07,27,16,40,30.30
2009,07,27,16,41,30.30
2009,07,27,16,42,30.40
2009,07,27,16,43,30.60
2009,07,27,16,44,30.60
2009,07,27,16,45,30.60
2009,07,27,16,46,30.60
2009,07,27,16,47,30.70
2009,07,27,16,48,30.70
2009,07,27,16,49,30.70
2009,07,27,16,50,30.60
2009,07,27,16,51,30.60
2009,07,27,16,52,30.40
2009,07,27,16,53,30.30
2009,07,27,16,54,30.30
2009,07,27,16,55,30.30
2009,07,27,16,56,30.30
2009,07,27,16,57,30.30
2009,07,27,16,58,30.30
2009,07,27,16,59,30.20
2009,07,27,17,00,30.20
2009,07,27,17,01,30.20
2009,07,27,17,02,30.20
2009,07,27,17,03,30.30
2009,07,27,17,04,30.30
2009,07,27,17,05,30.40
2009,07,27,17,06,30.40
2009,07,27,17,07,30.40
2009,07,27,17,08,30.40
2009,07,27,17,09,30.40
2009,07,27,17,10,30.30
2009,07,27,17,11,30.30
2009,07,27,17,12,30.30
2009,07,27,17,13,30.20
2009,07,27,17,14,30.20
2009,07,27,17,15,30.20
2009,07,27,17,16,30.20
2009,07,27,17,17,30.30
2009,07,27,17,18,30.30
2009,07,27,17,19,30.30